Gonets-M No. 13L

operational
NORAD ID: 38734 Int'l Des: 2012-041 Owner: GONETS Country: RU
LEOCIRCULARPOLAR

关于 Gonets-M No. 13L

正在加载描述...

实时位置

正在加载3D地球...

即将过境

高度历史

Altitude vs Time

uPlot chart will show altitude changes over time

两行轨道根数

1 38734U 12041B 26061.18184630 .00000033 00000-0 16121-3 0 9999
2 38734 82.4763 131.8468 0015261 296.5989 63.3528 12.44897930617357
Epoch: Mar 2, 2026 • Age: 42 hours

当前状态

高度 1497.3 km
速度 7.11 km/s
星下点 23.20°N, 121.65°W
发射日期 Jul 28, 2012
运行时间 13.5 years
类型 other

技术详情

分类 Payload
质量 280.00 kg
干质量 280.00 kg
总质量 280.00 kg
长度 1.60 m
直径 0.80 m
跨度 7.00 m
形状 Cyl + Ant
制造商 RESH
平台类型 Strela-3
阶段状态 In Orbit
所有者/国家 GONETS/RU

大型星座

Loading constellations...